sat.trackr.live / text

‹ back to catalog

STARLINK-35506

NORAD 66324 · 2025-253F

PAYLOAD ACTIVE UNKNOWN

§ Identity

Operator
Country
US
Launch date
2025-11-06
Launch site
AFETR
Launch vehicle
Mass (kg)
RCS (m²)

Purposes: comms

External: N2YO · Heavens-Above · Gunter

§ Orbital elements

Epoch: 2026-05-25T00:43:15.588192Z

Period
94.27 min
Inclination
42.9940°
Eccentricity
0.0000502
Mean motion
15.27598180 rev/d
Perigee alt
482.7 km
Apogee alt
483.3 km
Semi-major
6,861.1 km
B*
5.9733e-4
RAAN
141.0389°
Arg perigee
244.9240°
Mean anomaly
115.1559°
Rev number
3,192

§ Raw data

STARLINK-355061 66324U 25253F   26145.03004153  .00016221  00000+0  59733-3 0  99932 66324  42.9940 141.0389 0000502 244.9240 115.1559 15.27598180 31927

JSON: /api/v1/satellites/66324 · /tle

For live sub-satellite position, see the globe view (requires WebGL).

§ Visibility from observer

Set your observer location to see the next 7 days of passes ≥ 10°. The values pass through the URL so the page stays shareable.

No JS? Fill the form by hand. The geolocation button needs JavaScript.